Theta_e
351 353 357 358 357 357 357 356 355 356 354 354 354 352 352 353 352 352 351 351 352 351 351 352 351 351 350 350 349 348 348 347 346 345 344 344 344 344 344 344 344 344 345 348 349 348 348 348 347 347 348 346 347 347 348 345 345 347 346 346 346 345 344 346 345 346 347 347 346 347 347 346 346 347 345 345 346 348 346 347 345 342 342 343 345
349 355 357 357 357 357 357 357 356 355 355 354 353 353 352 351 351 352 352 352 352 351 352 352 351 351 350 349 348 348 347 347 345 345 344 344 343 344 344 344 345 344 345 346 346 348 347 347 347 347 348 348 348 348 348 346 346 346 345 346 347 346 345 345 347 346 346 346 346 346 345 346 346 346 345 345 346 346 344 344 345 341 341 344 344
352 356 357 356 357 357 357 355 354 355 353 354 354 353 352 351 351 352 352 352 351 351 352 351 351 350 349 349 348 348 347 345 345 345 344 344 343 343 344 343 344 344 345 345 346 347 347 347 346 347 346 347 347 347 347 346 345 345 346 345 345 345 344 345 345 345 346 346 345 345 345 346 345 344 345 347 345 346 344 345 344 343 341 345 344
352 355 357 357 357 357 356 355 354 354 354 353 353 352 351 351 351 350 352 351 351 351 351 351 350 350 349 348 348 347 346 346 346 345 344 344 344 344 344 344 345 344 345 344 346 346 347 347 346 346 346 347 346 345 346 346 346 345 345 345 346 345 345 345 345 345 345 345 344 343 342 338 342 344 345 345 345 345 344 344 344 343 343 343 343
352 355 356 356 355 356 356 355 354 354 354 353 352 351 351 352 352 351 351 351 350 350 350 351 350 349 349 348 348 348 347 346 346 346 345 345 344 342 341 342 342 344 344 345 346 346 346 346 346 346 346 346 347 346 347 346 346 345 344 345 346 345 345 345 344 344 344 344 343 340 336 337 338 343 344 344 343 344 343 343 343 343 342 342 342
353 355 355 355 355 355 355 355 354 354 353 352 352 351 352 352 351 351 350 350 350 349 350 350 350 349 349 348 348 348 347 346 346 346 345 345 346 345 345 344 342 341 344 344 345 345 346 346 346 346 345 346 346 346 345 344 343 343 345 345 345 345 343 343 342 342 342 342 340 335 334 335 337 339 342 342 342 341 342 341 341 340 339 340 340
353 355 355 355 354 354 355 355 354 353 353 352 351 352 352 351 351 351 350 350 350 350 350 350 350 349 348 348 348 347 346 346 346 346 346 347 346 346 346 347 347 346 345 344 345 346 346 346 346 346 345 345 345 344 343 343 343 344 345 345 345 345 342 342 341 341 340 335 331 331 330 331 333 336 341 341 340 340 339 340 340 339 339 339 340
354 354 355 354 354 354 355 354 354 354 353 352 353 352 353 352 350 350 350 351 349 350 350 350 349 349 349 348 348 347 346 346 346 346 346 347 348 349 349 350 349 348 347 346 346 346 345 345 346 345 345 345 344 343 343 343 343 344 345 343 345 343 341 341 341 340 338 331 330 330 329 329 330 334 340 341 341 340 339 339 339 338 338 340 341
352 354 354 354 354 355 354 354 354 354 353 353 353 353 352 352 351 350 350 350 350 350 349 349 349 349 348 348 348 347 346 346 345 346 346 348 350 350 349 349 349 347 346 345 344 345 345 345 345 345 345 344 343 343 343 343 344 344 343 344 346 343 340 340 340 339 335 332 331 330 330 330 331 330 334 335 336 338 339 338 338 335 335 337 337
352 353 354 354 353 354 354 353 354 354 354 353 353 353 352 352 351 350 350 350 350 349 349 349 349 349 347 347 347 347 347 346 346 346 349 350 349 348 348 348 348 347 347 346 346 346 346 346 346 345 345 343 343 342 343 343 344 343 342 343 344 342 342 341 340 338 332 331 331 332 335 337 332 334 338 340 339 339 338 338 338 336 336 336 336
352 353 354 354 353 353 353 353 354 354 354 353 353 352 351 351 352 350 350 350 349 349 349 349 349 349 347 347 347 348 347 347 347 348 349 348 348 349 350 350 349 348 347 347 346 346 347 347 346 345 344 343 343 342 343 344 344 342 341 342 342 341 340 338 336 330 330 329 329 330 337 338 329 331 336 336 336 335 335 337 337 337 337 336 338
351 353 354 353 355 353 353 353 354 353 353 353 352 351 352 351 351 350 350 350 349 349 349 349 349 349 348 348 348 348 347 347 347 347 348 347 350 351 350 350 348 348 347 346 346 346 346 346 346 346 344 343 343 344 343 344 344 341 341 341 340 339 338 337 330 329 328 329 330 329 329 330 330 335 338 335 334 337 336 339 341 342 340 340 340
350 352 353 352 353 353 353 353 353 353 353 353 353 352 352 352 351 350 350 351 350 350 349 349 349 349 349 348 348 348 348 348 347 348 348 351 351 351 350 350 348 347 347 346 347 346 346 346 345 345 344 344 345 344 344 345 344 341 340 340 339 338 337 336 328 327 328 328 330 331 331 330 332 337 336 336 338 338 337 337 339 340 340 339 339
349 351 352 352 352 356 352 352 352 353 352 353 353 352 352 352 351 351 351 351 351 350 350 350 350 350 349 349 349 349 349 348 348 348 350 351 351 350 350 349 348 347 346 346 346 346 347 346 346 345 345 345 345 344 344 345 345 340 339 339 339 338 337 336 334 329 330 329 331 331 333 335 334 337 337 337 336 336 336 336 337 338 338 337 337
348 350 351 352 352 352 355 352 352 351 351 351 352 352 352 351 351 351 351 351 350 350 350 349 350 350 349 349 349 349 350 348 349 350 351 350 350 350 349 348 347 347 346 346 346 346 347 347 346 346 345 345 344 344 344 346 344 340 340 339 338 336 336 329 330 328 329 331 331 331 329 331 336 337 337 337 337 337 336 336 336 336 336 337 336
350 350 351 351 351 352 352 354 351 351 351 352 352 352 351 351 350 350 350 350 350 350 350 350 350 350 350 349 349 349 349 349 350 351 351 351 350 349 348 348 347 347 347 347 346 346 347 346 346 346 346 345 344 343 345 346 343 340 339 338 337 337 336 332 326 326 326 328 331 332 331 332 337 337 336 337 336 336 336 336 335 335 336 336 335
349 350 349 350 349 349 350 350 351 351 351 351 351 351 351 350 350 350 350 350 350 350 350 350 350 351 350 350 350 350 350 351 351 351 351 350 349 348 348 347 347 347 347 346 346 346 346 346 346 346 344 344 343 344 345 345 343 341 339 339 338 338 336 333 325 325 326 330 329 328 327 331 337 337 335 334 335 335 335 335 335 335 335 334 334
348 349 348 349 348 348 348 348 349 349 349 350 352 351 350 350 349 349 349 349 349 350 350 351 351 351 350 350 350 350 350 351 351 351 350 349 349 348 347 347 346 347 347 346 346 346 346 346 346 345 345 345 343 344 344 342 341 340 339 339 338 336 335 333 325 327 330 333 329 332 331 336 336 336 337 336 336 335 335 335 335 334 334 334 333
347 347 348 348 348 348 346 346 347 347 347 347 348 350 350 350 349 350 349 349 349 350 350 350 351 351 350 350 351 351 351 351 351 350 349 348 348 347 347 346 346 346 346 346 346 346 346 346 345 345 346 345 344 345 345 343 341 340 339 338 337 336 336 333 327 327 329 328 328 326 328 338 337 336 336 335 335 334 334 333 332 333 333 333 333
345 346 346 347 347 346 346 345 345 346 346 346 346 347 350 350 350 350 349 349 350 350 350 350 351 351 351 350 351 350 349 349 349 349 349 348 347 345 347 347 346 346 346 346 346 346 346 346 345 345 345 345 345 345 346 345 342 340 339 339 338 337 327 325 325 326 326 329 328 325 335 336 336 335 335 334 333 333 334 333 333 333 333 332 331
342 344 345 346 346 346 346 345 345 346 347 346 346 346 347 350 350 350 350 350 350 350 350 350 350 349 349 349 348 345 345 345 346 346 349 346 347 347 347 347 346 346 346 346 345 346 345 345 345 344 345 344 344 345 345 342 340 340 339 338 336 327 326 326 327 330 329 328 330 329 335 335 335 335 335 335 332 332 332 332 333 333 332 332 332
339 341 343 345 345 345 345 345 345 346 346 345 344 344 346 348 345 346 346 348 349 349 347 345 348 343 348 346 341 345 342 343 344 348 344 346 345 347 347 347 346 346 346 345 345 345 345 345 345 345 344 344 342 334 340 341 340 338 337 336 327 325 326 326 326 327 328 327 330 332 336 336 334 334 334 334 334 335 333 332 331 331 331 331 332
337 339 341 343 344 344 345 345 345 345 345 345 345 345 344 343 341 342 345 347 347 346 343 345 341 341 341 341 342 341 341 342 343 345 344 346 345 347 347 346 346 346 346 346 345 345 345 344 345 345 344 341 334 332 332 335 335 339 336 328 325 325 325 325 325 327 327 329 327 335 333 334 335 335 334 333 333 333 333 333 333 332 331 332 331
336 339 340 343 343 343 343 344 344 345 344 344 344 344 343 342 340 341 342 342 342 343 341 341 340 340 341 340 338 340 340 339 347 348 347 343 344 346 346 346 346 346 346 345 345 344 344 345 345 342 339 336 333 332 331 333 332 327 325 325 325 325 326 326 326 327 328 332 330 335 335 335 334 334 335 334 333 333 331 331 332 332 331 331 330
335 338 340 341 341 341 342 343 344 344 344 344 344 344 344 344 342 340 341 340 341 340 340 340 339 340 339 339 338 339 339 339 339 340 340 339 339 340 340 339 337 337 343 331 335 337 335 332 334 335 334 334 333 331 330 331 329 325 325 326 326 327 328 328 327 327 328 331 332 335 334 334 335 335 334 334 334 333 332 333 332 332 332 331 330
337 335 336 338 339 341 341 341 343 343 343 343 343 344 344 343 342 342 340 341 341 340 339 339 338 338 338 339 339 336 336 336 337 338 337 337 337 336 335 335 332 332 335 332 331 331 328 330 333 334 335 334 332 331 331 330 327 326 326 327 328 329 329 328 328 328 328 329 333 335 335 334 334 334 334 334 334 333 332 332 332 331 330 329 329
335 334 336 336 338 339 339 339 340 340 341 342 343 343 341 342 342 342 341 340 341 340 340 338 338 337 337 339 337 335 334 332 336 337 337 336 336 334 333 333 333 333 333 334 331 328 328 329 330 333 334 334 333 330 329 328 328 327 327 328 329 330 330 330 329 328 327 329 333 335 335 335 334 332 333 333 333 333 332 332 332 331 330 329 329
332 332 333 334 337 336 337 337 336 338 338 340 341 340 339 340 341 344 341 343 341 339 339 339 337 337 337 337 338 335 334 333 336 337 337 335 334 333 332 331 332 333 332 331 329 328 327 327 328 329 334 334 333 330 329 329 329 330 330 331 331 330 330 330 331 330 328 328 330 334 335 336 334 334 334 334 334 334 334 335 333 333 332 332 332
332 332 333 334 335 336 336 335 335 336 337 338 339 337 338 339 340 340 339 344 338 338 338 339 337 336 337 337 337 334 333 334 334 336 336 334 332 332 331 331 331 332 332 329 328 328 326 327 327 329 330 331 330 329 329 329 330 331 332 332 332 330 330 331 331 330 329 328 329 332 334 335 334 335 333 334 335 336 337 337 335 333 332 332 332
332 332 333 334 335 337 336 335 334 334 335 337 337 335 336 337 337 339 339 343 337 336 337 338 337 336 336 337 337 335 334 334 334 334 334 332 332 331 331 330 331 331 330 330 327 327 325 326 327 328 330 330 329 329 328 328 329 330 331 332 332 331 331 331 331 330 330 329 328 333 335 334 334 336 337 336 337 338 338 338 338 337 334 332 332
331 331 332 333 335 336 336 336 335 337 335 336 335 335 335 336 336 337 340 339 337 336 337 337 336 335 336 336 336 336 335 334 334 333 333 332 331 331 331 330 330 329 330 329 328 328 325 327 328 326 329 330 329 329 328 328 328 330 331 331 331 331 331 332 332 331 331 329 328 329 332 336 335 338 338 338 337 338 338 338 339 339 337 335 333
329 330 332 332 333 334 335 335 334 335 335 335 337 334 335 336 336 335 337 337 336 335 335 336 337 335 336 335 335 335 336 334 334 333 333 332 331 330 330 329 330 328 329 328 328 328 326 325 326 327 331 330 328 327 328 328 328 328 328 330 331 331 331 332 332 331 331 330 329 330 330 333 337 338 338 340 338 339 339 338 339 339 338 338 336
330 331 331 331 332 333 334 334 335 335 334 334 335 334 334 335 335 335 335 335 335 334 334 336 336 335 335 335 334 335 335 334 334 334 335 332 331 330 329 330 330 329 329 328 328 326 328 328 329 330 329 328 327 327 327 326 326 326 328 328 330 330 331 332 331 331 331 330 328 327 326 329 330 337 339 339 338 338 338 338 338 338 338 337 338
329 329 329 329 331 332 333 334 335 334 334 334 335 334 334 335 335 334 335 334 334 333 334 334 335 335 335 335 335 335 335 334 334 333 333 331 331 331 329 329 330 330 330 329 328 328 327 328 328 328 331 328 326 325 325 325 324 325 327 327 328 329 330 331 330 330 329 329 327 327 326 327 327 328 332 338 338 338 337 337 337 337 337 337 337
328 328 329 330 333 332 333 333 335 333 336 335 335 334 333 334 334 333 334 334 333 333 333 333 334 335 337 337 335 335 335 334 334 333 332 331 331 330 330 331 332 331 330 330 330 329 329 328 328 326 325 325 324 326 325 325 325 326 326 327 328 329 330 329 329 329 328 326 328 326 326 326 327 328 330 328 338 337 337 337 337 337 337 338 337
329 329 330 331 332 332 333 332 332 332 334 335 334 334 334 333 333 335 332 333 333 332 332 333 334 336 338 338 336 335 335 334 334 333 331 330 330 330 330 331 333 333 331 331 331 329 329 328 328 326 325 324 325 323 322 324 324 325 326 326 327 329 328 328 328 328 327 327 327 326 327 326 327 328 333 326 326 333 337 337 337 338 338 337 337
329 331 331 332 332 331 333 331 330 331 332 334 334 334 333 332 332 335 335 335 334 333 333 333 334 336 338 338 336 336 335 334 334 333 331 330 330 329 330 332 333 332 330 330 331 330 329 328 325 325 326 324 323 322 322 323 324 325 326 326 325 327 326 326 326 327 328 327 325 325 325 325 330 337 327 326 327 328 334 336 337 337 337 337 338
330 331 332 332 331 331 331 331 330 329 331 333 334 334 333 332 333 334 336 335 335 336 335 335 335 336 337 337 337 336 336 334 333 332 331 331 330 331 331 331 330 330 329 330 329 329 329 326 325 324 324 325 323 323 322 324 326 326 325 326 326 325 325 326 327 330 327 326 326 325 326 327 329 328 328 327 328 326 323 329 334 334 336 337 338
330 331 332 331 331 330 330 329 327 327 330 332 334 335 334 333 332 333 334 334 335 336 336 335 335 334 335 337 337 336 335 332 332 333 332 332 331 331 331 330 330 329 329 329 328 328 328 325 324 325 326 324 324 323 324 326 326 326 326 327 328 328 327 327 326 326 326 326 327 329 328 328 329 329 328 328 327 324 322 321 323 325 327 336 338
331 332 331 331 330 329 328 326 327 329 330 331 334 333 333 331 331 332 332 333 334 334 333 333 334 334 336 336 337 334 332 331 332 331 330 331 330 330 329 330 330 330 329 328 327 327 327 326 325 325 324 325 324 324 325 326 326 327 326 327 328 328 327 326 326 327 326 327 329 328 327 325 327 327 329 329 326 322 321 323 326 324 325 330 335
331 332 332 330 329 329 328 327 329 330 330 331 333 332 330 330 331 330 330 332 332 334 333 332 333 335 336 335 334 332 331 331 332 331 330 332 330 329 329 330 330 330 329 329 329 328 328 327 327 325 324 324 325 326 325 327 325 323 324 323 324 327 328 327 325 325 326 325 326 327 325 326 323 326 327 325 323 323 323 325 324 325 325 325 327
330 331 331 330 329 329 328 328 330 331 331 332 333 333 333 332 331 330 331 331 332 332 332 333 334 336 336 333 331 332 332 331 331 330 330 331 329 328 328 329 329 329 329 329 329 330 328 327 327 325 326 325 324 327 326 326 322 321 319 318 320 323 325 325 325 326 325 325 325 326 322 323 325 326 325 324 324 326 325 324 324 325 325 325 326
330 331 332 331 330 329 329 328 331 332 332 332 333 333 333 333 332 331 332 331 334 334 334 335 337 336 335 334 331 331 330 331 331 331 329 330 329 329 328 328 328 330 328 328 329 328 327 327 327 325 324 325 326 328 326 320 320 323 322 319 316 316 320 322 324 324 325 323 324 326 327 328 328 325 326 324 323 325 326 324 324 323 323 323 323
329 330 331 332 332 330 329 328 331 333 333 333 333 333 333 332 330 328 331 332 331 333 334 334 335 335 333 332 332 331 330 330 331 331 331 330 328 328 328 328 328 330 328 328 328 326 325 326 326 326 326 323 324 325 327 320 323 323 316 315 316 316 313 316 320 322 324 324 324 325 326 326 328 327 325 325 324 325 324 324 323 322 321 321 321
329 330 330 332 333 332 332 331 330 333 334 333 333 332 332 330 329 329 330 330 331 331 330 330 332 333 333 330 330 330 330 330 331 331 331 329 329 328 328 329 328 329 328 327 326 326 326 327 326 325 325 324 323 325 326 323 323 325 320 316 314 313 313 316 320 320 322 323 324 323 326 326 325 327 326 325 325 325 325 324 321 321 319 320 320
329 329 330 332 332 333 334 334 334 334 334 334 333 331 330 328 327 326 325 325 325 326 326 327 329 330 331 330 330 329 329 330 331 331 331 330 328 328 329 329 328 328 328 327 326 326 326 326 327 326 324 325 325 324 323 325 323 323 322 318 318 315 314 318 319 313 320 321 323 324 324 326 324 326 325 323 324 325 325 323 319 319 318 318 318
326 328 330 331 332 332 334 335 334 334 335 335 334 332 330 329 328 328 327 326 326 327 329 330 330 332 332 329 329 329 330 329 329 330 330 330 329 328 328 328 329 328 329 327 326 326 327 327 328 326 325 325 325 323 324 323 322 323 322 324 322 317 321 319 315 316 314 317 319 318 320 324 324 325 323 323 324 324 323 323 319 318 317 316 316
325 327 327 328 329 329 332 334 335 335 335 335 335 334 331 329 327 327 328 327 327 327 328 329 331 332 331 330 329 329 329 329 329 329 330 331 329 328 328 328 328 328 329 327 326 326 326 328 328 327 326 325 325 324 324 324 322 321 322 322 321 319 322 319 319 318 316 314 314 317 319 320 322 321 321 323 323 323 322 319 318 317 315 315 313
324 324 325 326 327 328 329 330 333 332 332 333 333 333 332 330 328 327 326 327 325 326 329 329 329 331 330 329 328 329 329 329 329 329 329 330 331 330 329 328 328 328 329 327 326 326 326 326 327 327 325 324 324 324 325 324 323 321 320 315 317 317 317 315 319 317 312 312 311 313 311 313 315 315 320 321 322 322 321 318 318 317 317 314 312
324 325 325 325 326 326 324 325 327 330 330 331 332 332 332 331 328 327 325 324 324 325 329 328 328 330 329 328 328 328 329 329 328 328 328 329 330 331 330 328 327 328 329 326 326 326 325 326 327 327 326 324 324 324 324 324 324 321 321 317 313 313 314 314 314 313 313 311 312 313 311 312 311 311 317 319 320 319 318 318 317 315 313 312 310
322 324 324 325 325 324 324 324 326 328 330 331 331 331 332 331 329 328 326 324 324 326 327 327 328 328 328 328 328 327 329 329 328 327 328 329 329 331 329 328 328 329 328 325 325 326 325 325 326 326 326 325 324 323 322 322 323 321 320 320 319 318 317 314 314 314 313 308 310 308 308 312 312 311 314 317 319 318 318 315 315 313 312 311 309
Wind_Speed
6 9 9 11 12 14 16 16 16 15 17 16 15 16 16 16 17 19 20 20 21 22 22 22 23 23 22 21 21 21 21 21 20 20 19 19 19 19 18 17 17 17 17 18 18 16 17 17 16 18 19 19 18 18 19 17 18 17 18 18 19 19 17 17 16 18 17 18 18 18 17 16 16 16 15 15 15 15 15 16 13 10 7 11 16
10 9 8 9 13 14 16 15 15 15 16 16 15 15 16 17 17 18 19 20 20 21 21 21 21 22 21 21 21 21 21 21 21 21 20 20 19 19 18 18 16 16 16 17 18 17 16 17 17 19 18 19 19 20 20 19 19 19 17 17 17 19 17 17 18 17 17 17 16 16 17 17 16 15 16 14 15 17 15 15 15 8 6 15 16
10 9 8 9 14 13 15 15 16 15 16 16 15 15 16 17 17 18 18 19 20 20 19 19 20 21 21 21 21 21 21 21 21 21 21 20 19 19 18 18 17 16 16 16 17 18 17 16 16 18 18 19 20 19 19 18 18 17 18 17 17 18 16 17 17 18 17 16 15 15 17 17 16 14 15 17 16 17 15 17 16 14 10 17 14
12 9 9 11 14 13 15 14 15 16 16 15 15 16 16 16 17 17 18 19 19 20 19 19 20 20 20 20 20 21 22 21 22 21 20 20 19 19 19 18 17 17 16 16 16 17 16 15 16 15 16 17 18 18 16 16 17 16 16 18 18 17 16 17 16 16 17 16 13 10 5 5 11 16 17 16 17 17 17 17 17 17 18 16 17
12 10 9 9 9 11 13 15 15 16 16 16 16 16 16 16 16 17 17 18 18 18 19 19 19 19 19 19 20 21 21 21 20 21 20 20 19 18 17 17 16 17 16 17 16 15 15 16 16 16 15 16 16 16 16 15 15 13 12 13 14 15 14 16 16 16 15 15 14 9 7 8 8 15 16 16 16 15 16 17 17 17 17 17 15
10 10 9 9 9 10 14 13 15 16 16 16 16 16 16 16 16 17 16 17 17 18 18 18 18 18 19 19 20 20 20 19 20 20 20 19 18 19 19 19 17 15 17 16 15 16 15 14 15 15 15 14 15 14 14 14 13 12 12 10 10 12 14 15 16 15 14 14 12 7 7 6 5 7 15 14 14 14 15 16 16 15 15 15 15
12 9 9 9 9 10 15 13 15 15 16 17 16 16 16 16 16 17 17 17 16 17 17 17 18 18 18 18 19 19 19 19 19 19 19 17 17 17 19 19 19 18 16 16 16 14 14 14 14 14 14 13 13 13 13 12 12 12 11 10 10 14 15 16 16 15 14 9 6 6 6 6 4 4 14 14 14 14 15 15 15 15 15 14 15
8 8 8 9 8 12 15 13 14 15 16 16 16 16 16 16 16 16 17 16 16 16 16 16 16 17 17 18 19 19 19 18 18 18 18 17 17 17 18 19 19 18 17 16 15 14 14 14 13 13 13 12 12 12 12 12 12 12 11 11 13 17 15 15 16 14 13 7 5 5 6 5 5 5 13 14 15 15 16 15 15 15 15 16 16
10 9 9 9 9 17 14 13 13 14 15 16 16 16 16 16 17 17 16 16 16 15 16 16 16 16 17 17 18 18 18 18 18 18 18 17 18 18 18 18 17 16 15 15 15 14 13 13 13 12 12 12 12 12 12 12 12 12 14 14 15 17 16 15 14 13 7 5 5 5 5 4 5 4 11 13 14 14 15 13 12 15 15 14 15
10 8 8 8 9 15 14 14 13 14 15 15 15 16 16 16 17 17 17 16 16 15 16 16 16 15 16 17 17 18 17 17 17 17 16 17 18 17 17 16 15 15 14 14 14 14 13 13 13 13 12 12 12 11 11 10 12 13 15 16 17 17 16 15 14 10 5 5 6 6 8 9 4 5 12 15 16 16 15 14 11 11 11 15 15
9 8 8 9 11 14 14 14 14 14 15 16 15 16 16 16 17 16 16 16 15 15 15 16 15 15 15 16 16 17 17 16 16 16 16 16 16 16 17 16 15 14 13 13 13 13 13 13 13 13 13 12 12 11 10 11 13 15 16 16 16 16 15 14 11 5 5 6 6 6 8 10 5 4 13 14 15 14 15 14 14 15 15 14 15
11 9 8 8 15 15 14 14 14 15 15 15 15 15 15 16 17 16 16 16 15 15 14 14 15 14 14 15 16 17 16 15 15 16 16 16 16 16 16 16 14 13 12 12 13 13 13 13 13 13 12 12 12 12 12 12 13 16 15 16 15 15 15 14 7 6 5 5 6 6 5 4 4 11 17 15 14 15 14 15 16 16 15 15 16
10 9 9 9 10 14 14 14 15 16 16 15 14 15 15 15 16 15 15 13 12 12 13 13 12 12 13 14 15 16 15 15 15 15 15 15 16 16 16 15 13 12 11 11 12 12 13 13 13 13 12 12 12 12 12 12 12 16 15 15 15 15 14 13 6 6 5 5 6 6 5 4 6 13 14 14 14 14 14 14 17 17 16 16 15
11 10 9 9 9 15 14 13 14 15 16 15 14 14 14 14 14 13 13 12 11 11 11 11 12 12 12 12 13 14 14 14 14 14 15 16 15 15 15 14 13 12 11 10 11 12 13 13 13 13 12 13 11 11 12 12 12 15 15 15 15 15 15 10 8 5 5 6 6 7 6 6 6 14 14 13 13 14 14 13 14 15 15 15 14
12 10 9 9 9 10 16 13 13 14 14 14 13 13 13 13 12 12 12 12 12 12 12 12 12 12 13 13 13 13 12 13 13 15 15 16 15 15 15 14 12 11 10 10 9 10 12 13 13 12 13 11 11 12 12 12 13 16 15 14 14 14 13 6 6 5 6 6 4 5 4 3 13 13 13 13 13 13 13 14 13 14 15 14 14
11 11 9 8 8 9 9 14 14 14 14 14 13 13 13 12 13 13 13 12 12 13 13 13 13 13 13 12 12 12 13 13 14 14 15 16 15 14 14 13 11 11 10 10 9 9 11 13 13 13 12 11 12 13 13 13 17 16 13 12 13 14 13 8 6 5 6 5 5 5 5 6 13 13 13 13 13 13 13 13 13 13 14 13 13
10 10 10 8 8 7 7 8 11 16 14 14 13 13 13 13 13 13 12 12 12 12 12 13 13 13 13 12 12 11 12 12 14 14 15 15 15 14 13 12 10 10 10 10 9 9 10 12 13 12 12 12 12 13 13 15 16 14 13 12 13 14 13 9 6 5 6 4 3 3 3 5 12 13 13 13 13 13 12 12 13 12 12 12 12
12 11 10 9 7 6 7 7 9 8 8 11 12 12 12 12 12 12 12 12 11 11 12 12 12 12 13 12 12 12 12 14 15 15 15 14 14 13 12 11 10 10 10 10 9 9 10 11 12 12 12 11 12 13 13 14 14 13 13 13 13 14 13 10 5 4 4 4 4 4 5 9 13 13 14 14 13 13 13 12 12 12 12 12 12
11 11 9 9 8 7 6 6 6 5 6 5 5 9 12 11 12 12 12 12 11 11 12 12 12 12 13 12 12 13 14 15 16 15 15 14 14 13 12 10 9 9 10 9 9 9 9 10 12 12 12 11 11 12 11 12 12 13 13 12 13 14 13 6 4 5 4 4 4 4 4 10 12 14 13 14 14 13 12 12 12 12 12 11 11
6 7 8 7 7 7 6 6 6 6 5 5 6 7 10 11 11 11 11 11 11 10 11 12 13 12 12 13 13 11 11 11 15 13 15 14 12 9 11 10 8 8 8 9 8 8 9 10 12 12 11 11 11 10 10 12 12 13 12 13 13 12 6 5 4 4 5 4 3 2 8 11 12 13 13 13 13 12 12 12 12 12 12 11 11
2 5 6 7 7 7 9 7 7 7 6 5 4 5 7 10 8 10 10 10 10 10 10 12 12 11 10 10 9 6 5 6 8 7 13 8 9 11 11 10 8 7 7 8 7 8 8 10 11 11 10 10 9 11 13 13 13 12 12 12 12 6 5 4 4 4 4 4 3 4 11 10 12 12 13 13 12 11 11 11 11 11 11 11 11
5 5 5 7 8 8 10 6 5 6 5 3 2 2 3 6 3 4 4 6 8 9 8 5 7 3 9 6 3 5 5 5 5 9 5 8 9 13 11 10 9 8 7 7 7 7 7 8 10 10 10 10 9 5 6 13 15 13 12 12 7 5 4 4 4 5 5 4 4 7 11 11 11 11 12 13 13 13 12 11 11 11 11 11 11
5 5 5 6 3 5 5 6 6 5 5 4 3 3 3 3 2 3 4 6 6 4 3 4 3 3 3 3 3 4 4 4 5 6 6 10 9 12 11 10 9 8 7 8 7 6 6 6 9 9 10 9 5 4 4 5 8 15 12 6 5 5 4 3 3 4 5 4 4 10 10 11 12 12 11 11 12 12 12 12 12 12 12 11 11
4 5 6 2 3 4 5 4 5 5 5 4 4 4 3 3 3 3 3 3 3 3 3 3 3 3 4 3 3 3 3 3 10 14 10 6 7 11 11 10 9 8 7 5 7 6 5 5 8 9 6 4 4 5 4 4 6 6 6 5 5 5 5 3 3 3 4 4 4 11 11 11 11 11 12 12 11 11 11 11 11 11 11 11 10
3 4 3 4 4 4 4 4 4 5 5 5 5 4 4 4 3 3 3 4 4 3 3 3 3 4 4 4 3 3 4 3 3 3 3 4 4 4 4 4 3 2 5 2 4 3 3 3 3 4 3 3 4 4 5 6 5 6 6 6 5 5 5 3 2 2 3 4 5 10 10 10 11 11 11 11 11 10 10 11 11 11 11 10 10
5 6 6 5 5 5 5 4 4 4 4 4 4 4 5 3 3 3 3 3 4 4 4 3 4 4 4 4 4 3 3 3 3 3 3 3 4 4 4 4 3 2 2 2 2 4 3 3 3 4 3 3 5 4 4 7 6 6 6 5 6 5 5 4 3 2 2 3 6 12 9 9 9 10 11 10 10 9 9 9 10 10 10 9 9
5 5 6 5 5 6 5 4 4 4 4 4 5 4 4 4 3 3 4 3 4 4 4 4 4 4 4 5 5 4 4 3 4 4 4 3 4 4 4 4 4 2 2 2 1 2 2 2 3 4 3 4 5 4 5 6 6 6 5 5 5 5 5 4 4 4 3 2 5 12 10 9 9 9 10 10 10 10 9 9 10 10 10 9 8
5 5 4 5 5 6 6 5 5 5 4 5 5 5 4 5 4 5 5 5 5 5 4 4 4 4 4 4 4 5 5 4 4 5 5 4 4 4 4 4 4 3 2 2 1 0 1 1 2 4 4 4 5 4 5 6 6 6 6 5 5 5 4 4 4 3 3 3 3 8 10 9 10 9 10 11 11 10 10 9 10 10 10 9 9
9 7 6 6 6 7 7 7 6 5 4 4 5 5 5 5 5 4 5 5 4 4 4 4 5 4 4 5 5 6 5 5 5 5 4 4 3 4 4 4 4 4 3 2 1 1 0 1 1 5 4 5 4 5 5 5 5 5 6 6 6 5 4 4 3 3 3 3 3 6 9 10 9 8 10 11 11 10 10 10 10 10 9 9 8
8 8 7 7 7 8 9 8 7 6 5 5 5 5 6 6 6 6 5 5 4 4 4 5 5 5 5 5 6 6 6 6 5 4 5 4 3 3 4 4 4 3 4 3 2 2 3 1 1 4 5 4 5 5 5 5 5 5 5 7 6 6 4 4 4 4 3 3 3 3 9 8 6 3 7 11 12 11 10 10 10 11 10 9 8
8 10 9 8 7 7 7 8 7 6 6 6 6 6 6 6 6 6 6 5 5 5 5 5 5 5 6 6 6 5 5 5 5 5 4 4 4 4 4 3 3 4 4 4 3 4 3 3 3 5 5 4 4 5 5 5 5 5 4 6 6 5 5 4 3 3 4 3 2 3 4 7 6 3 3 6 10 10 9 8 9 10 10 10 9
10 10 9 7 8 8 8 7 7 7 6 6 6 6 6 6 6 5 6 6 6 5 5 6 6 6 5 6 5 5 5 5 6 5 5 5 5 4 4 4 4 4 4 3 4 3 4 1 2 3 4 4 4 4 4 6 5 4 4 4 5 5 4 4 4 4 4 3 4 3 3 3 6 4 1 6 7 9 8 6 6 8 9 10 9
9 9 6 6 8 8 8 7 8 8 8 8 8 7 6 5 6 6 5 6 6 6 6 7 7 6 6 6 5 5 5 6 6 6 6 6 6 5 4 4 4 4 4 4 3 2 2 4 4 3 4 4 4 4 3 4 5 4 4 4 5 5 4 4 4 4 4 3 4 3 2 1 2 4 6 8 9 8 6 4 4 5 6 7 8
8 3 3 5 3 4 6 7 9 10 11 9 7 7 6 5 5 5 5 6 6 6 6 6 6 5 5 5 6 6 6 5 6 5 5 6 6 6 5 5 4 4 4 4 5 4 4 4 5 5 5 6 5 4 5 4 3 3 4 4 4 4 4 4 3 4 4 3 3 3 3 2 3 3 3 7 8 6 4 3 3 4 5 5 7
3 4 7 7 7 7 6 7 9 10 10 8 6 6 5 5 5 4 4 5 4 5 4 5 5 5 5 6 6 6 5 5 5 6 6 5 6 5 5 5 4 3 4 4 5 5 5 6 5 5 3 3 3 4 4 5 5 4 4 4 5 4 4 4 3 4 4 3 4 3 3 3 2 3 3 3 4 4 3 5 6 5 4 5 5
7 5 5 6 8 8 9 8 8 10 9 8 6 6 6 5 4 4 3 3 3 3 4 5 5 5 6 6 6 6 6 6 6 6 6 5 6 5 4 3 3 4 4 4 5 6 5 6 4 7 6 3 4 3 3 4 4 4 3 4 4 4 5 4 4 4 4 4 3 3 3 2 2 2 3 3 2 2 4 5 6 6 6 4 5
5 7 7 6 7 8 8 9 12 13 9 8 8 6 5 4 5 5 5 4 4 3 3 2 3 5 5 6 6 6 6 6 6 6 6 5 3 5 4 1 3 5 4 4 4 4 5 6 3 2 6 6 4 4 4 4 5 4 4 4 3 4 4 4 3 4 4 4 3 3 3 2 3 4 2 2 2 3 5 6 6 7 7 6 3
6 7 7 8 8 7 7 10 5 3 6 7 7 7 5 4 4 4 5 5 5 4 3 3 4 5 5 6 6 6 7 6 5 6 5 5 5 5 4 1 2 5 5 5 5 4 4 2 6 2 2 6 5 5 5 4 4 5 4 4 3 3 3 4 3 4 5 4 3 3 3 3 3 2 2 2 2 2 2 5 7 7 6 5 6
7 8 7 6 5 6 6 6 2 3 5 6 7 7 6 4 4 4 5 5 5 5 5 5 4 3 4 6 7 7 4 4 4 5 7 7 7 6 4 4 3 4 6 6 5 4 5 2 1 5 3 1 4 4 5 5 5 5 5 4 4 4 3 3 3 3 4 4 4 3 3 4 3 2 2 2 2 2 3 3 4 4 4 7 6
7 7 7 7 8 7 6 4 3 4 4 5 6 6 6 6 6 4 5 5 5 5 4 5 3 5 6 5 7 6 4 4 6 2 3 6 6 5 6 5 4 5 6 7 6 6 7 8 4 6 6 4 3 4 5 7 6 5 5 5 4 4 3 2 4 3 3 4 4 4 3 2 3 2 2 2 2 2 2 3 4 4 3 6 8
7 8 9 9 10 10 7 8 5 5 6 6 6 7 7 7 5 7 7 6 6 6 6 5 5 6 7 6 6 5 5 5 5 3 3 3 5 5 4 5 3 4 5 7 7 7 5 5 6 3 7 6 4 3 3 6 8 4 5 4 5 4 4 2 3 2 2 2 3 4 4 3 2 2 2 2 2 2 3 4 4 4 4 4 5
10 10 11 12 12 10 11 10 7 7 7 8 8 8 8 8 7 7 6 5 7 8 6 7 8 6 6 5 4 3 5 8 8 4 3 1 1 4 4 4 4 4 3 4 4 5 5 6 7 5 1 6 4 6 6 7 3 4 5 2 3 3 5 2 3 2 2 2 2 4 2 2 2 2 2 2 2 3 3 3 3 4 4 4 4
11 11 11 11 10 11 10 8 8 8 8 8 9 9 8 6 6 4 6 3 3 4 5 5 6 7 6 6 5 4 5 6 8 7 6 7 8 6 5 4 5 5 5 5 5 6 6 7 8 8 6 1 3 4 6 1 5 4 3 4 1 2 2 2 3 2 2 1 2 4 3 3 2 1 2 2 2 3 3 3 3 3 4 4 4
5 6 7 8 4 4 3 4 5 6 6 8 8 5 5 4 3 4 4 4 3 4 4 4 5 7 6 5 5 5 5 5 7 7 6 6 7 7 5 5 6 6 7 7 6 6 5 6 7 6 8 7 4 5 5 1 4 10 5 1 1 1 2 1 2 2 1 1 2 3 3 3 1 1 2 1 2 3 2 3 3 3 3 4 3
3 3 2 3 2 5 6 4 4 6 6 4 6 6 7 6 5 4 4 3 2 4 5 5 6 6 6 6 6 5 5 5 6 6 6 6 5 6 6 6 6 5 5 6 7 8 7 7 8 7 8 9 8 4 6 2 4 1 5 5 2 0 2 1 3 1 2 2 2 4 3 3 2 2 3 1 1 3 3 3 3 3 3 4 3
4 4 3 4 4 4 6 7 7 6 6 5 5 6 8 8 8 8 8 7 6 7 9 9 7 7 7 5 5 5 5 5 6 6 6 5 6 6 6 6 6 5 5 5 5 4 6 7 7 7 7 5 9 7 7 3 4 2 1 1 2 5 5 4 4 2 2 2 1 2 3 2 3 2 1 3 2 3 3 4 3 3 3 3 3
3 3 0 2 4 6 6 7 7 7 7 5 5 2 4 5 8 8 9 8 9 7 5 6 6 5 5 7 6 5 6 6 6 6 6 6 6 6 6 6 5 5 4 5 5 7 7 7 6 6 6 6 6 8 9 6 2 4 2 2 2 1 7 8 4 3 3 1 0 1 1 2 5 3 3 3 4 4 2 3 3 3 3 3 3
4 4 3 2 3 5 6 5 5 5 4 4 6 4 3 4 5 6 6 7 8 7 7 6 4 4 6 7 7 7 7 6 6 6 5 6 6 6 6 5 5 6 6 6 6 6 5 4 6 6 5 6 7 8 8 6 9 6 1 2 1 2 6 1 4 8 6 7 2 1 1 2 6 4 3 4 5 5 5 3 4 3 3 3 3
4 3 2 3 5 7 8 10 7 4 2 2 5 6 5 4 5 5 5 3 3 3 4 4 5 4 6 6 7 7 7 7 6 6 5 5 5 6 6 6 6 6 5 5 5 5 7 7 7 6 7 6 6 5 7 8 7 7 4 1 4 3 3 1 4 3 4 5 1 3 2 2 2 1 4 4 4 4 4 4 3 3 3 3 3
3 3 3 2 2 2 5 7 9 8 7 5 3 4 4 4 5 5 5 4 3 3 4 5 6 5 6 7 7 6 6 6 6 5 6 5 5 6 6 6 6 6 5 6 6 6 6 6 7 8 7 7 5 6 7 6 7 5 5 5 4 3 3 2 2 3 2 1 6 7 5 6 5 0 2 5 5 3 3 3 3 3 3 3 3
6 8 6 2 1 1 2 2 5 4 7 8 6 7 7 7 7 8 7 7 6 6 6 6 5 5 6 6 6 7 5 6 5 6 6 5 5 6 6 6 5 5 5 6 7 7 7 7 6 5 7 8 7 6 4 4 5 5 5 6 7 9 8 6 7 5 4 3 5 3 3 3 4 5 1 3 4 3 3 3 4 3 3 3 3
Wind_Direction
164 153 147 141 137 135 129 125 126 122 120 118 117 117 116 113 111 112 113 113 112 112 113 112 112 113 114 113 112 110 107 106 105 106 106 105 105 105 102 98 97 95 97 95 95 92 92 88 86 83 82 92 94 91 87 87 87 84 79 84 88 86 82 87 90 85 82 79 79 82 87 88 89 91 91 82 77 77 74 71 69 69 71 76 77
157 154 143 142 137 135 131 124 124 124 120 120 118 117 119 117 116 115 114 113 112 114 113 112 112 113 113 112 110 109 109 108 108 108 108 108 108 106 101 98 96 97 98 97 91 89 92 92 89 83 83 82 80 80 82 82 83 87 87 81 83 89 86 85 85 83 81 80 77 78 82 86 85 84 83 84 81 75 77 76 72 69 67 71 72
136 144 137 142 136 135 130 127 129 124 123 121 119 118 119 118 118 117 114 113 113 114 112 112 112 113 112 112 111 111 111 111 112 111 109 109 109 108 106 104 104 104 103 102 100 97 91 90 88 95 93 90 88 81 81 86 86 85 90 90 84 88 91 85 84 88 88 87 85 84 83 85 87 87 84 81 81 78 74 74 73 72 72 70 69
139 142 135 138 132 131 129 127 126 126 124 123 121 121 121 119 118 116 113 113 113 114 113 112 113 113 114 114 114 114 113 113 112 112 112 110 107 108 110 110 108 107 107 107 102 97 90 92 89 83 85 90 94 95 95 84 77 80 79 81 77 75 79 80 79 77 76 76 75 74 64 62 75 74 76 77 74 73 70 70 70 69 66 64 66
139 138 133 131 129 129 127 125 129 129 126 124 124 124 121 119 116 115 114 113 114 114 114 114 114 115 117 117 118 117 116 115 114 114 113 112 110 108 104 103 106 111 112 112 104 90 93 89 88 83 80 83 80 77 73 76 79 77 75 77 73 68 80 81 77 74 72 66 57 51 48 51 58 70 72 71 73 74 73 71 71 69 68 67 71
138 133 130 128 128 129 127 126 129 131 129 127 127 125 123 120 118 116 114 114 115 115 117 117 117 118 119 119 120 119 117 116 115 113 113 114 113 112 112 112 110 109 114 112 103 101 94 94 90 85 85 84 81 68 64 63 60 55 54 66 73 76 84 80 76 70 65 60 53 46 44 45 56 72 76 76 76 75 75 74 73 73 74 73 76
134 129 130 128 128 131 131 130 131 133 131 130 129 126 125 123 119 117 116 115 116 118 118 119 120 120 121 121 121 120 119 119 117 116 115 114 115 115 114 114 114 111 108 110 107 105 103 97 91 89 84 77 78 68 66 63 56 54 56 63 82 90 89 83 78 74 69 62 59 55 52 49 43 67 82 82 80 78 77 77 75 75 76 78 77
124 127 125 128 128 133 133 133 134 134 133 132 131 129 126 124 122 120 117 119 119 120 121 122 122 123 123 124 123 122 122 121 118 118 115 115 111 108 112 114 113 109 111 110 108 106 105 101 93 92 88 84 74 68 63 58 56 56 65 79 101 106 96 87 83 80 76 71 68 68 64 56 55 68 77 76 73 74 78 76 75 75 78 77 74
128 124 124 125 132 134 133 133 134 136 133 136 135 130 129 125 122 122 122 122 124 125 126 125 124 125 125 126 125 124 124 123 122 121 118 108 100 106 106 104 101 101 101 100 101 103 101 100 99 90 83 75 71 66 60 54 55 64 80 83 107 107 95 90 85 81 75 75 71 64 55 45 48 57 80 84 84 80 73 68 71 80 80 73 73
127 123 124 124 131 131 131 133 136 135 136 138 134 130 129 127 126 126 128 128 131 131 130 129 128 127 127 128 128 127 126 127 127 123 111 105 109 109 105 105 105 105 104 102 100 97 94 89 85 82 80 77 71 67 63 55 57 81 87 88 89 95 94 91 86 79 75 69 65 67 78 72 65 87 88 85 86 83 85 86 89 89 84 79 77
120 121 122 125 131 132 133 136 137 137 140 139 135 132 132 132 130 132 133 135 135 136 135 133 130 129 128 129 129 129 129 129 126 118 112 113 113 111 108 107 105 103 101 99 96 93 88 86 84 83 81 78 75 70 60 57 71 91 92 91 90 91 92 89 82 72 71 69 66 58 73 80 80 76 85 83 83 84 85 90 85 89 92 88 78
123 120 124 131 137 134 138 140 139 137 140 140 139 137 136 135 136 138 138 139 139 137 135 132 134 132 131 129 133 132 129 128 124 121 120 119 115 110 108 106 106 105 102 100 97 95 91 89 87 83 81 78 72 63 59 58 79 99 98 95 94 92 90 87 80 73 65 63 69 71 63 61 83 92 90 89 91 92 85 79 77 79 84 79 70
130 130 130 133 130 141 141 142 142 141 141 142 141 141 140 140 140 140 139 137 138 136 135 134 134 134 132 131 133 132 129 129 128 126 124 120 110 111 110 108 106 104 102 101 101 99 97 93 89 84 79 73 67 65 62 61 79 105 104 100 98 97 95 90 82 80 75 74 71 63 59 46 61 86 89 94 96 96 91 84 82 81 78 75 73
133 130 131 130 137 143 142 143 143 144 146 146 145 146 144 141 141 138 135 136 134 135 137 138 137 136 133 132 134 132 129 130 131 130 128 117 116 115 112 111 110 107 104 102 102 102 100 97 90 84 77 72 68 61 60 65 80 108 109 106 105 104 100 92 88 84 79 70 76 73 78 89 98 90 93 88 84 85 85 83 80 77 77 75 72
131 129 126 132 143 142 147 143 143 144 146 146 146 146 143 141 139 137 136 137 138 140 141 141 138 135 135 133 133 131 129 135 136 132 126 122 120 118 114 114 114 112 108 105 104 106 103 99 93 86 80 76 69 60 58 72 99 113 113 111 109 106 101 91 86 80 79 76 77 89 83 80 93 96 95 96 94 86 83 84 82 78 77 77 77
121 122 127 135 138 146 145 147 146 147 149 150 150 147 144 143 142 141 142 143 145 145 144 141 139 138 135 134 131 133 137 140 136 128 124 121 119 116 115 117 117 115 112 110 108 107 105 100 96 89 82 76 68 62 65 90 115 118 114 110 108 106 103 98 87 84 87 87 87 92 96 101 95 92 92 92 92 94 92 89 87 88 86 79 74
125 131 137 136 136 138 140 141 151 154 153 153 152 149 146 146 145 145 146 147 148 146 142 140 138 136 133 133 132 136 143 141 136 126 126 124 122 121 122 122 121 120 116 114 112 109 105 102 97 91 84 76 69 64 71 100 116 114 110 109 109 107 104 99 94 92 90 85 75 74 86 90 104 104 100 98 94 89 90 89 86 86 84 82 84
135 136 137 134 129 126 134 146 152 153 154 154 150 147 147 148 147 147 148 149 148 148 144 139 134 133 134 134 137 137 141 138 131 129 130 128 124 124 123 125 126 124 121 119 117 110 104 102 96 92 84 78 74 71 77 90 105 108 111 111 110 109 106 98 95 87 77 75 84 88 97 110 106 105 102 98 98 102 97 92 90 87 84 80 79
130 134 133 133 128 128 132 140 145 142 144 138 148 153 150 152 152 150 150 151 151 150 146 139 136 136 138 138 139 141 141 139 138 132 130 131 128 125 125 127 130 130 124 122 118 111 103 97 92 88 85 83 80 78 81 96 106 111 113 116 114 113 105 86 87 84 79 82 80 81 89 106 108 106 106 107 105 97 95 92 89 85 82 85 89
115 126 130 123 124 125 136 143 143 145 144 148 153 156 160 155 152 150 149 151 152 148 145 142 142 141 144 146 146 147 146 141 140 135 135 135 129 128 130 131 136 133 126 123 120 113 104 96 90 86 85 84 80 79 87 94 107 114 117 117 114 104 92 94 91 85 84 87 84 83 112 111 108 106 106 104 101 100 97 93 89 87 83 84 84
83 126 127 128 129 138 152 160 160 150 145 146 145 147 163 155 150 148 149 150 148 147 145 148 147 150 148 148 144 134 133 142 141 138 140 137 133 132 134 138 141 138 130 124 121 111 105 96 90 87 86 81 74 86 106 105 104 110 112 112 106 92 100 98 93 89 83 85 90 95 104 106 109 111 107 104 104 103 98 97 94 90 96 93 91
144 152 144 142 149 163 164 144 126 123 124 119 108 110 134 150 124 143 140 150 152 150 149 149 148 137 151 139 117 126 127 131 141 141 138 142 140 139 140 143 147 142 136 126 117 112 104 99 95 93 86 78 82 78 102 124 122 114 114 109 98 102 99 100 101 102 98 97 102 114 108 101 105 107 108 109 107 105 108 108 105 102 92 89 85
165 152 151 159 146 133 117 121 124 124 122 100 97 85 98 83 110 130 150 155 160 144 126 140 96 109 87 96 101 100 124 136 134 143 145 145 145 142 142 149 151 149 142 130 124 118 109 102 102 96 87 83 78 83 102 117 125 122 113 105 109 105 99 89 90 97 107 111 112 112 110 116 112 106 109 109 110 113 107 102 99 94 92 86 85
174 160 155 131 122 104 109 110 125 124 124 116 99 101 97 111 124 132 124 138 140 137 113 111 113 98 106 94 98 124 121 134 156 148 142 143 148 144 148 154 155 148 145 129 128 128 121 112 99 94 76 79 89 101 106 111 109 109 113 113 109 110 103 97 94 96 101 104 111 121 121 116 117 119 115 112 114 111 110 110 107 105 101 99 93
171 132 120 130 115 107 106 116 127 142 138 131 131 125 118 128 123 126 124 130 134 139 114 115 121 118 114 111 123 140 133 131 131 120 122 138 127 133 141 132 135 147 128 93 108 103 87 76 76 78 68 79 91 97 108 110 113 115 117 125 125 119 110 96 80 92 109 111 118 119 120 128 129 123 121 119 111 112 114 111 110 105 101 103 103
151 151 158 144 134 117 119 136 143 143 131 116 118 131 126 120 118 128 112 112 134 138 123 127 132 133 128 133 132 129 116 111 119 124 124 135 134 138 136 135 130 130 97 108 91 102 97 91 100 96 86 85 91 92 106 123 120 115 121 124 128 121 110 99 83 74 83 115 125 124 118 117 109 111 114 115 113 113 111 109 109 109 107 106 107
164 170 155 150 130 119 119 133 137 141 137 130 125 117 121 117 118 132 130 143 154 148 152 155 160 146 143 145 142 141 140 139 148 149 148 155 148 148 146 148 145 133 126 135 159 113 111 115 104 101 106 100 88 89 106 115 122 124 122 125 122 120 118 119 113 109 106 111 125 126 128 127 119 121 121 118 120 119 120 122 120 121 120 119 112
149 173 153 147 143 130 132 140 149 149 150 145 140 137 141 141 159 177 164 175 158 161 159 161 155 155 156 158 149 151 153 155 161 160 163 165 164 153 144 149 154 149 147 165 177 99 73 91 110 97 105 103 97 101 115 123 126 128 125 122 121 120 117 116 117 113 113 113 122 133 132 127 129 137 131 125 121 123 117 123 125 127 129 128 120
163 171 164 152 149 139 139 151 154 153 152 146 150 147 153 154 166 165 166 186 161 161 158 156 161 167 165 163 157 153 156 157 167 169 159 172 160 155 161 166 161 165 156 194 182 166 195 155 146 104 108 103 112 124 128 127 129 131 128 129 129 127 126 120 120 120 109 109 109 130 133 143 142 147 132 127 118 120 120 128 125 124 126 124 121
180 162 166 171 158 147 153 162 154 158 155 151 159 159 166 166 173 169 169 180 165 152 157 166 171 171 173 176 172 164 168 167 167 165 167 172 175 168 167 171 170 169 169 183 200 183 203 200 132 102 112 126 133 142 131 131 132 134 135 134 138 139 132 131 127 125 121 110 122 137 137 125 110 131 134 124 121 118 118 119 126 126 123 127 131
182 183 178 172 161 148 153 157 152 158 160 169 169 172 174 180 175 166 174 169 158 155 164 169 175 184 181 180 178 171 164 164 164 166 170 166 179 174 185 180 175 177 181 191 179 194 197 196 143 122 128 141 146 140 135 138 139 139 142 138 141 132 132 127 120 122 112 100 97 122 132 133 138 142 174 122 124 129 128 126 128 133 133 134 140
193 200 182 161 158 154 148 157 161 158 164 177 173 172 182 182 170 164 172 160 155 164 168 171 185 188 184 182 180 173 166 169 168 168 168 167 177 187 186 184 199 189 190 191 187 196 187 129 94 113 132 140 140 129 130 136 133 122 118 121 125 129 129 130 130 126 115 108 105 100 116 142 150 171 74 46 73 81 88 103 122 130 138 147 146
205 194 166 166 163 148 146 160 163 161 172 185 180 173 173 175 169 173 168 162 164 164 173 183 185 188 184 184 180 174 173 171 175 173 169 171 173 183 191 202 206 196 192 190 154 155 112 101 97 107 123 129 128 111 99 111 129 122 117 115 121 125 130 131 130 123 116 118 110 109 109 116 117 107 77 84 82 83 89 93 115 134 142 141 145
191 155 148 175 166 153 162 163 166 169 184 189 173 165 171 172 165 162 166 166 172 172 180 183 183 182 181 184 180 182 179 178 171 172 166 170 174 183 189 205 208 202 193 170 156 156 132 119 132 132 149 150 154 145 133 125 110 115 117 120 113 126 130 130 134 128 122 119 116 102 96 73 67 61 56 76 83 85 91 79 109 124 139 149 154
159 159 187 175 160 171 185 182 174 182 187 182 164 156 157 167 161 161 171 174 170 175 176 176 181 179 178 185 187 187 183 179 177 168 170 174 178 183 189 197 185 171 161 167 153 149 140 143 143 130 123 114 133 149 142 128 135 131 124 120 125 126 127 134 125 125 121 115 108 107 102 104 83 69 66 54 69 95 96 81 67 69 93 151 161
179 178 174 174 183 182 191 196 186 187 182 162 151 154 161 160 144 152 137 152 160 181 181 184 180 178 184 185 190 191 184 180 177 173 169 179 184 181 189 165 152 125 129 139 131 139 141 136 147 142 125 133 140 115 86 113 110 110 106 111 120 128 130 134 137 131 122 116 118 120 115 110 103 105 91 69 51 31 86 66 58 50 54 61 165
169 170 178 183 195 199 200 207 202 193 158 153 144 138 138 143 147 146 145 150 167 185 191 175 178 189 190 190 190 192 186 181 180 179 174 171 117 63 349 317 121 119 117 113 108 111 132 132 120 155 149 149 146 123 106 112 113 105 112 113 117 130 136 143 139 133 123 127 135 125 123 125 136 118 75 82 53 36 53 57 47 39 30 15 22
182 181 183 190 198 206 218 227 244 90 144 155 144 133 134 134 141 142 151 153 162 179 186 183 195 196 195 195 192 193 189 181 177 173 153 121 121 171 143 249 103 117 111 102 116 128 89 90 134 88 106 135 142 146 136 119 110 112 109 109 112 116 127 123 133 137 135 141 136 142 154 140 106 107 110 84 68 43 21 35 45 35 28 25 26
187 185 181 189 198 216 234 262 313 163 139 137 126 121 122 125 124 146 157 156 156 164 175 184 189 180 226 202 192 198 166 126 182 175 162 157 151 153 135 147 162 142 124 114 120 122 113 50 188 115 81 60 141 144 134 122 114 108 104 107 115 113 112 120 109 132 143 139 146 148 145 126 112 100 94 79 53 60 51 43 42 39 24 42 45
183 188 186 185 201 216 235 256 213 185 154 128 128 123 131 145 167 163 175 184 168 167 178 190 190 203 205 209 198 194 151 127 189 149 174 149 146 145 148 152 199 150 134 127 136 157 159 149 174 131 122 98 68 109 124 119 100 92 83 77 84 107 101 87 104 121 125 147 148 139 138 114 117 107 86 78 69 61 62 52 51 37 40 31 36
188 187 187 196 204 203 206 223 203 198 172 152 157 154 162 166 176 185 192 185 183 176 172 180 206 209 195 201 207 194 143 136 168 130 169 167 139 138 153 160 170 157 149 152 154 173 161 147 136 124 133 128 126 135 129 128 120 88 73 66 54 38 72 68 73 66 104 115 136 133 122 115 107 96 79 84 84 61 61 54 44 47 39 44 36
193 186 193 199 201 199 206 207 197 196 190 178 175 179 184 188 180 190 184 172 182 189 178 179 195 198 198 208 209 168 143 153 154 175 125 93 71 142 197 167 163 149 154 136 140 160 155 144 136 120 126 148 144 159 160 133 130 153 139 105 40 55 79 82 117 79 70 76 89 101 79 99 93 87 84 87 70 81 67 46 50 49 41 44 42
184 188 198 202 203 204 214 209 204 198 195 187 182 189 188 181 181 174 180 165 186 183 175 172 179 183 196 190 181 158 141 156 151 170 175 180 183 182 179 169 164 154 147 149 152 168 169 157 157 146 137 110 107 162 176 178 133 126 101 90 111 81 64 79 56 64 96 64 50 77 87 83 98 85 95 89 72 78 72 54 62 51 46 44 39
187 197 207 223 230 245 280 281 265 236 209 197 193 180 165 150 138 125 161 163 170 169 167 167 178 178 186 162 165 150 137 140 155 169 180 189 179 176 166 170 176 181 165 158 162 175 168 166 155 150 145 147 154 178 199 224 154 140 148 135 136 78 94 317 119 48 32 86 98 95 109 107 95 105 59 73 83 84 68 82 70 54 50 49 41
27 12 320 280 256 230 235 232 257 278 272 231 183 155 146 139 136 111 125 117 128 168 169 195 188 184 177 152 161 153 152 144 169 181 184 186 178 169 166 172 180 183 171 164 171 179 179 173 166 154 172 160 164 164 195 191 199 265 134 132 84 33 225 127 108 38 57 102 122 142 139 128 122 125 118 317 64 101 119 93 83 62 61 55 49
35 1 344 308 328 296 254 224 210 221 244 249 207 165 165 161 160 162 167 178 190 188 194 190 184 183 176 142 143 155 141 168 199 190 187 174 174 170 167 170 180 176 178 177 167 167 179 170 175 171 175 184 162 161 180 211 219 231 340 62 138 168 163 166 138 201 32 1 329 128 159 154 142 163 139 157 152 125 133 118 92 85 68 64 58
44 8 15 287 305 309 287 260 236 212 214 221 224 209 166 170 175 182 184 190 200 209 199 193 190 175 137 144 149 138 169 186 197 195 185 177 170 169 171 179 176 172 171 163 180 191 187 181 167 172 185 164 157 166 178 180 177 262 275 347 30 89 140 145 181 74 155 204 349 163 186 176 142 222 183 164 148 138 133 116 105 91 72 65 61
28 33 13 343 296 307 314 285 264 261 234 192 201 209 195 173 185 194 196 200 207 206 191 191 171 154 148 144 144 161 178 193 207 198 185 172 169 171 176 177 172 179 180 185 189 194 186 175 173 172 167 175 171 171 175 170 175 201 179 240 54 138 168 110 153 169 157 158 153 10 34 181 148 217 187 147 148 150 136 115 120 107 98 81 77
32 58 26 347 357 355 353 346 328 321 320 248 201 201 192 174 183 197 213 220 213 206 185 178 173 157 152 141 150 158 184 196 200 193 189 172 172 179 182 181 179 181 189 191 186 186 188 176 168 167 178 182 183 180 173 181 183 188 150 107 99 114 126 58 131 109 139 145 105 167 155 3 74 112 135 122 143 146 139 144 144 139 127 111 101
320 248 185 125 98 79 29 11 335 342 327 294 257 223 206 161 173 193 199 193 182 183 180 175 179 172 162 151 158 168 174 190 198 200 192 178 174 185 189 183 183 178 186 189 182 186 192 187 185 183 179 179 182 177 188 185 190 168 169 145 120 109 95 91 138 132 55 62 162 176 167 155 156 167 117 137 149 128 123 145 138 130 123 124 121
320 320 355 31 77 36 76 209 219 216 264 271 250 233 214 204 188 184 188 179 179 177 180 183 172 168 175 163 158 172 180 186 188 200 195 177 180 192 188 185 174 174 183 182 188 189 190 188 185 183 184 181 176 180 186 183 178 170 167 165 159 166 169 170 178 185 157 142 92 104 128 161 155 125 184 145 139 129 141 160 155 152 150 142 139